Temp
8 8 8 8 8 8 8 7 7 6 6 5 5 6 6 6 7 7 7 7 8 8 8 8 8 8 8 9 8 8 8 8 8 8 7 7 7 7 7 7 7 7 7
8 8 9 8 9 9 8 7 7 6 6 6 5 6 6 6 6 7 7 7 7 7 8 8 8 8 8 8 8 8 8 8 7 8 8 7 7 7 7 7 7 7 7
8 8 8 9 9 8 8 7 7 7 6 6 5 6 6 5 6 7 7 7 7 7 7 8 8 8 8 8 8 8 8 7 7 7 7 7 7 7 7 7 6 6 6
9 9 8 9 9 8 8 7 7 6 6 6 5 6 6 6 6 6 6 7 7 8 7 8 8 8 8 8 8 8 7 7 7 7 7 7 7 6 7 7 7 7 7
9 9 9 8 9 8 7 7 6 6 5 6 6 6 5 5 6 5 6 6 7 7 8 8 8 8 8 8 8 8 7 7 7 7 7 7 7 7 6 7 7 7 7
10 10 9 8 8 8 8 7 6 6 5 5 5 5 5 5 5 5 5 6 6 7 8 9 9 8 8 8 8 8 8 8 7 7 7 7 7 7 7 6 6 6 6
10 10 9 9 9 9 9 8 7 7 6 5 5 5 5 5 6 5 5 6 7 7 8 9 9 9 9 9 9 8 9 9 8 8 8 7 7 7 7 7 6 6 6
11 10 9 9 9 9 9 9 9 8 7 6 5 6 6 6 6 6 5 5 6 7 7 8 8 8 9 9 9 9 9 9 9 8 8 8 8 8 7 7 7 7 7
10 10 10 9 9 9 9 9 9 9 7 8 8 7 7 6 6 6 6 6 7 6 7 8 8 8 8 8 9 9 9 8 8 8 8 8 8 8 7 7 7 7 6
11 10 10 10 9 9 9 9 10 9 8 7 8 7 7 7 6 7 7 7 7 7 8 8 8 8 8 8 8 8 8 8 8 8 8 7 7 7 7 7 6 6 6
11 11 11 10 10 10 9 10 10 9 9 8 8 8 8 8 8 8 8 8 8 8 8 8 8 8 8 8 8 8 8 8 8 8 7 7 7 7 7 7 6 6 6
11 11 11 11 10 10 10 10 10 10 10 9 9 9 9 9 9 9 9 9 9 9 9 9 9 8 8 8 8 8 8 8 8 7 7 7 7 7 7 7 6 6 6
12 11 11 11 10 10 10 10 10 10 10 10 10 10 9 9 9 9 10 9 9 9 9 9 9 9 9 9 9 9 8 8 8 7 7 7 7 7 6 6 6 6 6
11 11 11 11 10 10 11 10 10 10 11 11 10 10 10 10 10 10 10 10 10 10 10 9 9 9 9 9 9 9 9 8 8 8 8 7 7 7 7 7 7 6 6
11 12 12 11 11 11 11 11 11 11 11 11 11 11 11 11 11 11 10 10 10 10 10 10 10 9 9 9 9 9 9 9 9 8 8 8 7 7 7 7 6 6 6
12 12 12 12 12 11 11 11 11 11 11 10 11 11 11 11 11 11 11 11 11 11 11 11 11 10 10 10 10 9 9 9 9 9 9 8 8 7 7 6 6 7 6
12 12 12 12 12 12 12 11 11 11 11 11 11 11 11 11 11 11 11 11 11 11 11 11 11 11 11 11 10 10 10 10 10 10 9 9 8 8 7 7 7 7 7
12 12 12 12 12 12 12 12 12 12 11 11 11 11 11 11 11 11 11 11 11 11 11 11 11 11 11 11 11 11 11 10 10 9 10 9 9 8 8 8 7 8 8
12 12 12 12 12 12 12 12 12 12 12 11 11 11 11 11 11 11 11 11 11 11 11 11 11 11 11 11 11 11 11 10 10 10 9 9 9 9 8 8 7 7 7
13 13 13 13 12 12 12 12 12 12 12 12 12 11 11 11 11 11 11 11 11 11 11 11 11 11 11 11 11 11 11 11 11 10 10 9 9 9 9 8 6 7 7
13 13 13 13 13 13 13 12 12 12 12 12 12 12 12 12 12 11 11 11 11 11 11 11 12 12 12 11 11 11 11 11 10 10 10 10 9 8 8 8 7 6 6
13 13 13 14 14 14 14 13 13 12 12 12 12 12 12 12 12 12 12 12 12 12 12 12 12 12 12 12 12 11 11 11 11 10 10 9 8 9 8 8 7 5 6
14 14 14 14 15 15 14 14 14 13 13 13 13 12 12 12 13 13 13 13 13 13 13 12 13 13 13 12 12 11 11 11 11 10 9 9 8 8 8 7 7 6 5
15 15 15 15 15 15 15 15 14 14 14 14 14 14 13 13 13 12 12 12 12 13 12 12 12 12 12 11 11 11 10 10 11 11 10 10 9 9 8 7 6 5 4
15 15 15 15 16 15 15 14 14 14 15 15 14 14 14 14 13 13 13 13 13 14 13 12 12 12 12 12 12 11 11 10 10 10 9 9 9 8 8 7 6 5 4
15 15 15 16 16 16 15 15 15 14 15 15 15 15 15 15 14 14 14 14 15 15 14 14 14 14 13 14 13 12 12 11 11 10 11 8 8 8 7 7 6 6 4
Height
3220 3221 3220 3221 3220 3220 3219 3219 3219 3219 3220 3220 3220 3219 3221 3222 3222 3223 3224 3224 3224 3224 3225 3225 3226 3227 3227 3227 3226 3226 3226 3226 3225 3224 3224 3223 3222 3221 3220 3219 3218 3217 3216
3221 3222 3222 3222 3221 3220 3220 3220 3219 3219 3220 3221 3221 3220 3221 3223 3222 3224 3224 3225 3225 3225 3227 3227 3227 3227 3228 3227 3227 3227 3227 3227 3226 3225 3225 3224 3223 3222 3221 3221 3220 3220 3219
3223 3224 3224 3224 3223 3222 3221 3221 3220 3220 3220 3221 3222 3222 3222 3223 3223 3224 3225 3225 3226 3226 3228 3228 3229 3229 3229 3229 3228 3228 3227 3227 3226 3226 3225 3224 3224 3223 3222 3221 3220 3220 3219
3224 3225 3226 3225 3223 3223 3223 3223 3221 3221 3222 3222 3223 3223 3224 3225 3225 3226 3226 3226 3227 3227 3229 3228 3229 3229 3229 3228 3228 3227 3227 3227 3226 3226 3225 3224 3224 3223 3222 3221 3221 3220 3220
3225 3226 3227 3226 3225 3224 3224 3223 3224 3224 3225 3225 3225 3225 3226 3227 3227 3228 3227 3227 3227 3228 3229 3228 3228 3228 3228 3228 3227 3227 3226 3227 3226 3226 3225 3224 3223 3222 3222 3220 3219 3219 3218
3224 3227 3228 3227 3226 3225 3224 3224 3224 3225 3226 3226 3226 3226 3227 3228 3229 3229 3229 3228 3228 3228 3229 3228 3227 3227 3227 3227 3227 3226 3225 3225 3225 3224 3223 3222 3222 3222 3221 3219 3219 3217 3215
3225 3227 3227 3228 3227 3227 3225 3224 3224 3225 3226 3226 3227 3227 3228 3229 3230 3230 3230 3230 3230 3229 3229 3228 3227 3228 3227 3227 3226 3226 3225 3224 3224 3223 3223 3221 3220 3219 3219 3219 3217 3215 3214
3225 3226 3227 3227 3227 3227 3227 3226 3225 3226 3226 3227 3227 3228 3229 3232 3231 3231 3231 3231 3231 3231 3230 3230 3229 3229 3229 3228 3229 3227 3226 3225 3225 3224 3222 3221 3221 3220 3219 3217 3216 3214 3213
3224 3225 3227 3227 3227 3228 3228 3228 3227 3227 3227 3229 3229 3230 3231 3232 3233 3232 3232 3232 3232 3231 3231 3231 3231 3231 3231 3231 3230 3229 3228 3227 3226 3225 3224 3222 3222 3220 3219 3218 3216 3214 3212
3223 3225 3226 3227 3227 3228 3229 3229 3229 3229 3230 3230 3231 3232 3233 3234 3235 3235 3234 3233 3232 3232 3233 3232 3232 3232 3231 3231 3231 3230 3229 3228 3227 3226 3225 3223 3222 3221 3220 3217 3216 3214 3212
3222 3224 3225 3227 3228 3228 3229 3231 3230 3231 3232 3232 3232 3233 3234 3235 3236 3236 3236 3236 3236 3235 3234 3234 3233 3232 3232 3233 3232 3231 3230 3229 3227 3227 3225 3224 3222 3221 3220 3218 3216 3214 3211
3221 3223 3225 3226 3227 3228 3230 3231 3231 3232 3233 3234 3235 3236 3237 3237 3238 3238 3238 3239 3239 3238 3237 3236 3235 3234 3234 3233 3232 3231 3231 3230 3229 3227 3226 3224 3222 3221 3220 3218 3216 3213 3211
3220 3222 3223 3225 3226 3227 3229 3230 3231 3233 3234 3236 3236 3237 3238 3239 3239 3239 3240 3241 3240 3240 3240 3239 3238 3237 3236 3234 3233 3232 3231 3230 3228 3227 3225 3224 3223 3221 3219 3217 3215 3213 3210
3217 3219 3221 3222 3224 3226 3227 3229 3231 3232 3235 3237 3237 3238 3239 3240 3240 3241 3241 3242 3242 3242 3242 3242 3241 3239 3238 3236 3235 3234 3232 3230 3228 3226 3224 3223 3221 3220 3219 3216 3214 3211 3209
3214 3216 3218 3219 3221 3224 3226 3228 3229 3232 3234 3236 3237 3238 3240 3241 3241 3241 3242 3243 3243 3243 3242 3242 3241 3241 3239 3238 3236 3234 3233 3230 3228 3226 3223 3222 3219 3218 3216 3215 3213 3211 3208
3211 3213 3215 3217 3219 3221 3223 3225 3227 3230 3232 3234 3236 3238 3239 3240 3241 3242 3243 3243 3242 3242 3242 3241 3241 3240 3239 3237 3235 3234 3232 3229 3226 3225 3222 3220 3218 3216 3214 3212 3209 3208 3206
3207 3210 3212 3214 3216 3219 3221 3223 3226 3227 3229 3232 3234 3236 3238 3239 3240 3240 3241 3241 3241 3241 3240 3240 3239 3239 3237 3235 3234 3233 3231 3228 3225 3223 3220 3218 3216 3213 3210 3208 3207 3205 3202
3203 3206 3208 3211 3213 3215 3218 3220 3222 3224 3226 3228 3231 3233 3235 3236 3238 3238 3238 3239 3239 3238 3237 3238 3237 3236 3234 3233 3232 3230 3228 3225 3223 3221 3218 3215 3213 3209 3206 3205 3202 3202 3201
3198 3202 3205 3208 3211 3213 3214 3217 3219 3220 3222 3224 3226 3228 3231 3231 3233 3234 3235 3236 3236 3235 3234 3233 3233 3232 3230 3228 3227 3225 3223 3221 3218 3216 3213 3210 3208 3206 3204 3202 3201 3197 3196
3195 3198 3201 3204 3207 3209 3211 3213 3215 3217 3219 3221 3222 3224 3225 3226 3228 3229 3230 3230 3230 3230 3229 3228 3228 3227 3225 3224 3222 3220 3218 3215 3213 3210 3208 3206 3204 3202 3200 3198 3196 3192 3191
3192 3195 3197 3199 3202 3204 3206 3209 3211 3213 3215 3217 3218 3219 3220 3221 3223 3223 3223 3225 3224 3223 3222 3221 3220 3219 3218 3217 3217 3216 3211 3209 3206 3204 3202 3200 3198 3196 3194 3192 3190 3186 3184
3187 3190 3192 3194 3197 3199 3203 3205 3207 3209 3211 3212 3214 3215 3216 3216 3217 3217 3218 3218 3219 3217 3215 3214 3213 3209 3210 3209 3208 3206 3203 3199 3194 3198 3194 3191 3189 3187 3186 3185 3183 3180 3176
3183 3185 3187 3190 3192 3195 3198 3201 3204 3204 3206 3207 3208 3209 3210 3210 3211 3211 3212 3211 3210 3209 3207 3206 3203 3201 3200 3200 3199 3196 3192 3188 3185 3187 3184 3180 3179 3177 3179 3176 3171 3169 3167
3178 3181 3183 3186 3188 3191 3194 3196 3199 3199 3199 3200 3202 3203 3204 3205 3205 3205 3205 3203 3203 3202 3201 3200 3196 3195 3193 3191 3186 3185 3182 3176 3173 3172 3171 3166 3168 3167 3169 3168 3165 3162 3160
3174 3177 3179 3181 3183 3186 3188 3191 3192 3193 3193 3194 3196 3196 3198 3198 3199 3199 3197 3195 3194 3193 3192 3190 3188 3185 3183 3181 3177 3172 3168 3165 3159 3159 3162 3157 3156 3159 3160 3158 3158 3156 3150
3169 3171 3173 3176 3178 3180 3182 3183 3185 3186 3186 3187 3189 3189 3189 3190 3190 3189 3187 3185 3184 3185 3181 3179 3177 3174 3171 3168 3164 3158 3156 3150 3149 3143 3147 3146 3144 3146 3144 3147 3145 3135 3138
Wind_Speed
8 4 5 6 4 5 6 7 6 5 6 10 9 6 5 6 10 9 7 7 7 7 8 7 6 7 7 6 5 4 4 4 4 4 4 4 4 4 3 4 4 4 4
8 7 6 7 2 3 4 5 3 3 1 7 5 4 3 10 12 10 7 6 5 5 6 5 6 5 5 4 5 4 3 4 3 3 3 4 6 4 4 4 4 6 6
9 5 5 2 5 6 3 5 6 7 6 4 5 6 9 12 10 9 5 5 3 3 4 3 3 3 3 2 2 1 1 0 1 1 2 5 6 5 4 4 4 4 6
7 6 2 5 6 5 5 7 9 11 11 9 6 11 14 10 9 8 5 4 2 2 2 2 2 2 2 2 2 3 2 3 4 4 4 5 5 5 5 7 4 4 6
6 6 1 3 5 4 5 7 7 8 8 8 15 15 12 10 10 7 7 4 0 1 3 1 2 3 2 3 4 4 4 5 5 6 6 6 6 6 6 7 6 8 10
6 5 3 4 4 4 4 4 5 9 9 6 13 12 13 14 11 9 9 8 4 5 4 3 5 4 4 3 3 4 4 6 6 7 6 7 7 8 8 9 10 12 13
6 5 2 3 4 5 7 6 4 4 7 8 7 11 12 12 12 12 13 9 10 11 10 8 7 4 2 1 1 1 1 1 2 4 6 6 6 7 8 9 10 12 13
6 7 5 1 3 5 5 6 7 5 9 9 8 9 12 11 11 12 13 13 12 10 10 11 10 8 7 6 5 5 4 4 3 3 3 5 5 5 6 7 7 8 8
7 7 7 4 3 3 4 6 8 6 9 9 13 13 12 10 10 11 11 11 12 11 10 10 9 8 8 7 6 5 5 5 5 5 5 6 6 5 5 6 7 8 9
8 7 6 6 5 4 4 3 8 8 8 8 11 11 11 11 11 11 11 11 11 11 9 7 8 8 7 5 5 5 5 5 6 7 6 5 5 7 8 9 9 10 11
11 9 8 9 8 6 6 6 7 8 8 9 9 10 11 11 10 11 11 11 10 11 11 9 7 7 5 4 4 5 4 4 5 5 6 5 6 7 9 10 11 12 13
12 10 9 10 10 9 8 8 9 9 10 10 10 10 10 9 9 11 12 11 10 11 10 8 8 7 7 6 6 5 5 4 5 5 5 6 7 8 10 11 13 14 14
12 11 10 9 10 11 11 11 12 12 11 11 11 10 10 9 9 10 10 10 11 11 11 8 8 8 9 8 8 7 6 5 4 5 7 8 9 9 9 11 13 16 16
14 14 12 11 12 15 15 14 15 15 14 12 11 11 11 11 10 9 8 8 8 8 8 6 7 8 9 8 7 6 4 4 5 5 6 8 9 12 13 13 14 16 17
17 16 14 13 13 15 16 17 17 16 15 14 12 11 10 10 8 6 5 5 4 4 5 4 4 4 6 7 8 10 10 10 9 8 8 10 10 12 14 14 15 17 18
20 17 15 14 14 15 18 19 19 18 17 16 14 12 10 8 7 5 3 1 1 3 3 3 4 4 5 7 9 10 11 11 11 11 10 11 12 13 13 16 15 17 19
22 20 18 16 16 15 16 18 21 21 20 18 17 14 12 10 9 8 6 5 5 5 6 8 7 7 7 9 10 11 12 13 13 14 14 12 13 14 14 14 16 17 18
24 22 21 19 17 15 13 14 18 23 23 22 21 19 16 16 15 14 13 11 11 12 13 11 14 14 12 12 12 12 13 14 15 14 16 16 15 15 15 16 14 14 22
27 24 23 20 17 16 14 13 15 17 20 24 24 23 21 22 20 20 19 19 18 18 19 19 17 19 20 20 20 18 18 18 19 19 19 18 19 17 15 15 11 11 18
27 25 24 21 20 19 19 17 15 14 14 16 21 25 25 25 25 24 25 25 26 26 26 26 25 24 26 25 25 25 24 26 26 25 25 23 24 21 16 12 10 9 14
25 23 24 23 22 22 22 19 17 15 14 15 16 18 20 23 26 29 30 29 30 31 32 32 32 32 32 32 31 31 33 33 33 32 31 27 26 27 20 19 16 11 13
26 24 23 22 22 22 20 19 18 18 17 17 18 18 20 21 22 24 27 29 31 33 36 37 37 38 36 37 38 39 39 42 44 37 38 34 31 30 27 24 20 16 11
23 24 23 22 20 20 19 18 18 19 19 19 19 19 20 20 20 22 24 26 29 31 33 35 38 38 38 37 36 39 41 44 45 41 41 43 40 37 32 29 27 23 17
20 21 22 22 23 22 21 20 19 20 22 20 20 20 21 20 21 23 24 26 27 29 31 33 37 36 37 38 41 41 40 45 46 47 47 50 47 44 38 34 31 30 25
22 22 22 23 25 24 24 23 23 24 24 24 23 24 25 26 27 29 32 34 36 35 39 41 43 45 46 47 49 51 52 52 54 52 48 50 50 46 44 40 36 35 36
30 29 29 29 29 29 29 29 30 30 31 31 30 30 30 30 31 33 35 36 34 33 37 38 39 40 42 43 46 52 54 59 59 60 57 53 53 49 48 46 48 45 46
Wind_Direction
125 105 65 75 100 108 100 129 114 111 94 88 83 100 115 113 110 109 105 97 99 99 99 104 105 89 83 84 87 81 72 61 60 58 55 50 35 39 29 40 54 53 61
112 76 64 39 45 91 98 112 104 64 74 102 87 80 118 115 103 110 113 114 117 107 98 103 101 105 103 95 90 95 93 53 42 42 44 27 5 9 17 22 19 18 18
121 94 50 7 93 93 91 85 89 92 86 48 77 79 120 117 101 113 93 122 131 114 116 150 132 120 108 94 109 109 132 93 8 352 338 338 345 340 346 344 346 14 12
142 118 72 32 77 92 96 79 76 83 72 78 111 112 120 113 106 92 73 132 172 192 175 183 164 178 208 224 229 232 243 270 288 286 287 300 305 306 297 328 276 307 329
156 142 116 44 86 101 104 161 98 97 121 77 113 112 110 94 111 100 78 75 82 274 156 204 198 199 230 259 256 262 271 266 268 275 284 290 287 281 285 282 271 275 291
172 169 152 85 101 99 93 126 136 141 146 157 129 121 113 100 107 96 68 70 77 90 123 186 205 201 232 264 275 260 265 285 282 274 272 272 280 276 271 274 277 281 285
173 183 178 85 92 72 82 109 124 122 157 175 151 132 130 122 117 106 85 82 75 81 85 88 105 131 187 174 6 218 165 217 281 286 284 277 278 279 283 281 280 285 291
183 175 189 122 79 88 76 86 94 112 148 162 156 152 122 125 118 111 105 93 82 78 78 78 79 96 95 82 78 78 70 67 43 1 351 341 335 326 314 305 308 308 310
196 189 179 177 132 121 80 78 84 102 148 128 132 131 117 104 109 121 117 111 107 93 83 74 69 75 86 87 73 60 51 43 56 39 33 38 20 13 4 351 339 340 340
209 200 181 186 174 166 141 101 101 102 113 123 135 128 120 109 110 106 109 110 107 104 99 96 88 79 74 78 65 49 42 37 39 29 26 21 4 350 347 338 340 340 338
211 202 199 193 185 180 172 154 124 120 128 128 119 106 106 120 122 107 100 102 108 109 112 112 91 81 69 46 29 30 28 9 26 20 5 349 347 346 342 338 342 340 337
214 204 195 190 189 184 181 167 145 139 138 136 124 118 117 113 102 101 103 106 101 100 101 95 90 88 88 77 60 44 19 8 1 357 348 333 328 330 325 324 330 330 324
219 208 200 195 184 191 187 177 159 154 151 141 135 128 117 109 106 101 96 92 87 82 80 78 81 87 83 72 65 55 41 21 9 352 339 327 322 312 313 312 314 318 322
213 207 208 207 197 195 192 185 178 174 168 159 149 137 128 121 111 103 103 98 86 82 81 69 49 35 37 42 37 34 24 1 346 336 320 311 302 303 304 310 310 308 314
211 213 215 214 210 199 201 198 192 187 180 178 174 160 144 132 131 129 110 97 96 94 87 73 49 11 355 1 2 353 356 350 343 327 320 306 302 292 292 301 300 300 305
214 215 218 218 216 203 201 205 205 202 198 193 192 189 173 172 174 172 159 202 6 2 18 19 5 351 344 341 337 330 331 338 338 328 314 304 299 291 289 291 290 293 300
211 215 216 219 223 216 207 205 208 211 210 210 209 206 204 211 216 226 226 242 266 288 307 316 325 333 334 329 323 326 323 322 322 321 318 300 292 291 287 288 288 293 296
216 213 218 220 224 228 216 208 210 215 217 219 221 220 218 227 230 241 247 250 266 279 283 284 293 301 301 302 307 311 310 311 308 302 304 306 294 291 294 296 286 307 310
222 220 219 221 222 225 223 214 209 215 220 224 228 231 231 236 237 243 252 254 255 264 269 273 277 284 290 294 295 298 303 302 300 300 294 293 295 290 288 289 294 307 316
224 226 227 222 219 218 218 220 220 219 222 229 235 239 240 244 248 250 255 260 264 267 269 271 273 273 276 281 285 292 294 292 294 290 292 290 284 282 276 267 282 322 328
230 229 232 228 223 217 218 220 226 232 235 235 237 240 244 248 251 255 258 262 266 269 272 275 278 280 280 281 285 286 286 286 282 282 285 285 279 278 270 255 273 296 339
235 237 233 231 226 225 222 225 233 240 247 252 255 253 251 250 252 255 258 262 263 267 271 273 278 280 283 286 287 288 287 284 283 280 282 279 275 271 268 263 264 269 284
232 236 237 235 231 232 237 241 248 256 259 257 256 255 255 255 256 256 256 258 261 265 268 273 275 280 286 288 286 285 286 283 282 283 275 274 272 271 269 261 254 256 263
234 233 235 236 239 241 247 251 255 259 259 255 254 254 258 260 262 265 267 267 268 272 273 273 277 284 284 284 283 282 282 279 279 280 277 274 273 272 269 260 252 255 255
233 235 239 241 240 246 252 253 255 254 254 255 258 260 262 266 269 270 272 276 279 284 279 278 280 281 281 282 283 280 278 278 280 280 279 278 276 273 270 267 257 253 257
241 241 240 242 246 249 251 255 257 256 254 258 262 267 272 275 278 280 279 280 285 290 288 287 288 287 284 283 281 279 279 276 277 277 280 274 274 270 264 263 255 251 252